Location: �clusier
(49.9361°N, 2.7869°E)
Time: 01:11:25
(UTC+00:00)

Cosmos 1908 - Visible Passes

Search period start: 24 October 2021 00:00
Search period end: 03 November 2021 00:00
Orbit: 509 x 529 km, 82.5° (Epoch: 23 October)

Date Brightness Start Highest point End Pass type
(mag) Time Alt. Az. Time Alt. Az. Time Alt. Az.
24 Oct 5.0 03:31:33 10° N 03:34:59 31° ENE 03:38:23 10° SE visible
24 Oct 4.3 05:07:34 10° NW 05:10:38 23° W 05:13:41 10° SW visible
24 Oct 3.4 17:26:21 10° SSW 17:30:13 80° W 17:34:06 10° N visible
25 Oct 5.7 03:23:01 17° ESE 03:23:01 17° ESE 03:24:14 10° SE visible
25 Oct 4.7 04:58:20 20° SW 04:58:20 20° SW 04:59:56 10° SSW visible
25 Oct 3.2 17:12:22 10° S 17:16:14 88° E 17:20:06 10° N visible
25 Oct 6.7 18:52:00 10° WNW 18:52:39 10° WNW 18:53:18 10° NW visible
26 Oct 6.5 18:37:06 10° W 18:38:35 12° WNW 18:40:04 10° NW visible
27 Oct 6.3 18:22:33 10° W 18:24:31 13° WNW 18:26:29 10° NNW visible
28 Oct 6.2 18:08:08 10° WSW 18:10:27 15° WNW 18:12:47 10° NNW visible
29 Oct 6.1 17:53:47 10° WSW 17:56:24 17° WNW 17:59:01 10° NNW visible
30 Oct 6.0 17:39:29 10° WSW 17:42:20 20° WNW 17:45:12 10° NNW visible
31 Oct 5.8 17:25:15 10° WSW 17:28:18 22° WNW 17:31:22 10° NNW visible
01 Nov 5.6 17:11:01 10° SW 17:14:15 25° WNW 17:17:29 10° NNW visible
02 Nov 5.3 16:56:50 10° SW 17:00:12 29° WNW 17:03:35 10° N visible
